| time (UTC) | temp C | wind direction | speed KPH | gust KPH | rain 1hr cm | rain 24hr cm | rain mn cm | humidity % | barometer mb |
| 20260905125727 | 31 | 33 | 3.2 | 4.8 | 0.00 | 0.10 | 0.10 | 55 | 1018.4 |
| 20260905124826 | 31 | 76 | 1.6 | 4.8 | 0.00 | 0.10 | 0.10 | 57 | 1018.5 |
| 20260905123947 | 31 | 65 | 3.2 | 8.0 | 0.00 | 0.10 | 0.10 | 57 | 1018.5 |
| 20260905123026 | 31 | 76 | 6.4 | 12.9 | 0.00 | 0.10 | 0.10 | 58 | 1018.5 |
| 20260905122126 | 30 | 61 | 6.4 | 12.9 | 0.00 | 0.10 | 0.10 | 58 | 1018.5 |
| 20260905121226 | 30 | 58 | 6.4 | 16.1 | 0.00 | 0.10 | 0.10 | 59 | 1018.4 |
| 20260905120326 | 30 | 58 | 6.4 | 14.5 | 0.00 | 0.10 | 0.10 | 60 | 1018.4 |
| 20260905115426 | 30 | 37 | 4.8 | 12.9 | 0.00 | 0.10 | 0.10 | 61 | 1018.6 |
| 20260905114526 | 30 | 21 | 6.4 | 11.3 | 0.00 | 0.10 | 0.10 | 63 | 1018.8 |
| 20260905113626 | 30 | 1 | 4.8 | 9.7 | 0.00 | 0.10 | 0.10 | 62 | 1018.9 |
| 20260905112726 | 30 | 357 | 4.8 | 8.0 | 0.00 | 0.10 | 0.10 | 62 | 1019.2 |
| 20260905111826 | 30 | 4 | 3.2 | 8.0 | 0.00 | 0.10 | 0.10 | 62 | 1019.1 |
| 20260905110926 | 30 | 15 | 3.2 | 6.4 | 0.00 | 0.10 | 0.10 | 62 | 1019.1 |
| 20260905110026 | 30 | 347 | 3.2 | 8.0 | 0.00 | 0.10 | 0.10 | 61 | 1019.2 |
| 20260905105126 | 30 | 328 | 1.6 | 6.4 | 0.00 | 0.10 | 0.10 | 62 | 1019.2 |
| 20260905104226 | 30 | 292 | 1.6 | 4.8 | 0.00 | 0.10 | 0.10 | 62 | 1019.0 |
| 20260905103326 | 30 | 280 | 1.6 | 4.8 | 0.00 | 0.10 | 0.10 | 63 | 1019.2 |
| 20260905102447 | 30 | 250 | 1.6 | 4.8 | 0.00 | 0.10 | 0.10 | 64 | 1019.0 |
| 20260905101526 | 29 | 224 | 3.2 | 6.4 | 0.00 | 0.10 | 0.10 | 64 | 1019.0 |
| 20260905100647 | 29 | 205 | 3.2 | 6.4 | 0.00 | 0.10 | 0.10 | 63 | 1019.0 |
| 20260905095726 | 29 | 175 | 3.2 | 8.0 | 0.00 | 0.10 | 0.10 | 63 | 1018.8 |
| 20260905094847 | 29 | 125 | 3.2 | 9.7 | 0.00 | 0.10 | 0.10 | 63 | 1018.7 |
| 20260905093947 | 28 | 88 | 3.2 | 12.9 | 0.00 | 0.10 | 0.10 | 64 | 1018.6 |
| 20260905093026 | 28 | 36 | 1.6 | 6.4 | 0.00 | 0.10 | 0.10 | 64 | 1018.5 |
| 20260905092126 | 28 | 14 | 4.8 | 8.0 | 0.00 | 0.10 | 0.10 | 64 | 1018.4 |
| 20260905091226 | 28 | 30 | 4.8 | 9.7 | 0.00 | 0.10 | 0.10 | 64 | 1018.4 |
| 20260905090326 | 28 | 3 | 4.8 | 8.0 | 0.03 | 0.10 | 0.10 | 65 | 1018.3 |
| 20260905085425 | 28 | 354 | 4.8 | 8.0 | 0.08 | 0.10 | 0.10 | 65 | 1018.3 |
| 20260905084525 | 27 | 314 | 3.2 | 8.0 | 0.08 | 0.10 | 0.10 | 69 | 1018.1 |
| 20260905083625 | 27 | 339 | 3.2 | 9.7 | 0.08 | 0.10 | 0.10 | 70 | 1018.1 |
| 20260905082726 | 27 | 349 | 8.0 | 11.3 | 0.08 | 0.10 | 0.10 | 71 | 1018.0 |
| 20260905081825 | 27 | 54 | 8.0 | 16.1 | 0.08 | 0.10 | 0.10 | 67 | 1017.9 |
| 20260905080925 | 27 | 65 | 3.2 | 12.9 | 0.10 | 0.10 | 0.10 | 67 | 1018.4 |
| 20260905080025 | 28 | 115 | 3.2 | 6.4 | 0.05 | 0.05 | 0.05 | 64 | 1019.0 |
| 20260905075125 | 27 | 32 | 4.8 | 6.4 | 0.03 | 0.03 | 0.03 | 63 | 1018.8 |
| 20260905074225 | 27 | 33 | 4.8 | 8.0 | 0.03 | 0.03 | 0.03 | 64 | 1018.5 |
| 20260905073325 | 28 | 360 | 6.4 | 12.9 | 0.03 | 0.03 | 0.03 | 63 | 1018.4 |
| 20260905072425 | 29 | 352 | 3.2 | 11.3 | 0.03 | 0.03 | 0.03 | 61 | 1018.5 |
| 20260905071525 | 29 | 353 | 4.8 | 8.0 | 0.00 | 0.00 | 0.00 | 57 | 1018.4 |
| 20260905070626 | 29 | 352 | 6.4 | 12.9 | 0.00 | 0.00 | 0.00 | 57 | 1018.2 |
| 20260905065725 | 29 | 330 | 6.4 | 12.9 | 0.00 | 0.00 | 0.00 | 58 | 1018.2 |
| 20260905064825 | 28 | 333 | 4.8 | 14.5 | 0.00 | 0.00 | 0.00 | 59 | 1018.2 |
| 20260905063925 | 29 | 313 | 3.2 | 9.7 | 0.00 | 0.00 | 0.00 | 59 | 1018.0 |
| 20260905063025 | 28 | 304 | 3.2 | 6.4 | 0.00 | 0.00 | 0.00 | 60 | 1017.7 |
| 20260905062125 | 28 | 280 | 4.8 | 9.7 | 0.00 | 0.00 | 0.00 | 60 | 1017.5 |
| 20260905061225 | 28 | 269 | 6.4 | 16.1 | 0.00 | 0.00 | 0.00 | 61 | 1017.7 |
| 20260905060325 | 28 | 267 | 4.8 | 16.1 | 0.00 | 0.00 | 0.00 | 61 | 1017.6 |
| 20260905055425 | 28 | 279 | 8.0 | 12.9 | 0.00 | 0.00 | 0.00 | 63 | 1017.6 |
| 20260905054525 | 28 | 271 | 6.4 | 16.1 | 0.00 | 0.00 | 0.00 | 63 | 1017.6 |
| 20260905053625 | 28 | 273 | 1.6 | 16.1 | 0.00 | 0.00 | 0.00 | 64 | 1017.5 |
| 20260905052725 | 28 | 39 | 3.2 | 4.8 | 0.00 | 0.00 | 0.00 | 64 | 1016.6 |
| 20260905051846 | 28 | 49 | 3.2 | 8.0 | 0.00 | 0.00 | 0.00 | 64 | 1016.5 |
| 20260905050925 | 28 | 33 | 4.8 | 8.0 | 0.00 | 0.00 | 0.00 | 64 | 1016.5 |
| 20260905050025 | 28 | 25 | 3.2 | 9.7 | 0.00 | 0.00 | 0.00 | 64 | 1016.4 |
| 20260905045125 | 28 | 10 | 3.2 | 6.4 | 0.00 | 0.00 | 0.00 | 64 | 1016.4 |
| 20260905044225 | 29 | 44 | 4.8 | 9.7 | 0.00 | 0.00 | 0.00 | 63 | 1016.4 |
| 20260905043325 | 29 | 31 | 3.2 | 9.7 | 0.00 | 0.00 | 0.00 | 62 | 1016.1 |
| 20260905042425 | 29 | 37 | 3.2 | 4.8 | 0.00 | 0.00 | 0.00 | 63 | 1016.1 |
| 20260905041525 | 29 | 39 | 3.2 | 6.4 | 0.00 | 0.00 | 0.00 | 63 | 1016.1 |
| 20260905040625 | 29 | 65 | 6.4 | 9.7 | 0.00 | 0.00 | 0.00 | 63 | 1016.1 |
| 20260905035725 | 30 | 73 | 4.8 | 12.9 | 0.00 | 0.00 | 0.00 | 62 | 1016.0 |
| 20260905034825 | 30 | 69 | 4.8 | 9.7 | 0.00 | 0.00 | 0.00 | 61 | 1016.1 |
| 20260905033925 | 30 | 40 | 4.8 | 11.3 | 0.00 | 0.00 | 0.00 | 62 | 1015.9 |
| 20260905033046 | 30 | 38 | 3.2 | 8.0 | 0.00 | 0.00 | 0.00 | 62 | 1015.7 |
| 20260905032125 | 30 | 28 | 3.2 | 6.4 | 0.00 | 0.00 | 0.00 | 62 | 1015.8 |
| 20260905031225 | 30 | 21 | 3.2 | 8.0 | 0.00 | 0.00 | 0.00 | 62 | 1015.7 |
| 20260905030325 | 30 | 278 | 1.6 | 4.8 | 0.00 | 0.00 | 0.00 | 63 | 1015.9 |
| 20260905025424 | 30 | 265 | 0.0 | 1.6 | 0.00 | 0.00 | 0.00 | 63 | 1016.2 |
| 20260905024524 | 29 | 263 | 3.2 | 3.2 | 0.00 | 0.00 | 0.00 | 63 | 1016.3 |
| 20260905023645 | 29 | 253 | 3.2 | 12.9 | 0.00 | 0.00 | 0.00 | 64 | 1016.4 |
| 20260905022724 | 30 | 302 | 1.6 | 4.8 | 0.00 | 0.00 | 0.00 | 63 | 1016.3 |
| 20260905021845 | 30 | 269 | 1.6 | 4.8 | 0.00 | 0.00 | 0.00 | 63 | 1016.1 |
| 20260905020924 | 30 | 286 | 1.6 | 8.0 | 0.00 | 0.00 | 0.00 | 62 | 1016.5 |
| 20260905020024 | 30 | 236 | 3.2 | 4.8 | 0.00 | 0.00 | 0.00 | 62 | 1016.3 |
| 20260905015145 | 30 | 253 | 3.2 | 8.0 | 0.00 | 0.00 | 0.00 | 62 | 1016.5 |
| 20260905014224 | 30 | 237 | 3.2 | 6.4 | 0.00 | 0.00 | 0.00 | 60 | 1016.2 |
| 20260905013324 | 30 | 180 | 3.2 | 11.3 | 0.00 | 0.00 | 0.00 | 59 | 1016.3 |
| 20260905012424 | 30 | 191 | 4.8 | 9.7 | 0.00 | 0.00 | 0.00 | 59 | 1016.5 |
| 20260905011524 | 30 | 182 | 4.8 | 11.3 | 0.00 | 0.00 | 0.00 | 59 | 1016.4 |
| 20260905010645 | 30 | 173 | 3.2 | 9.7 | 0.00 | 0.00 | 0.00 | 60 | 1016.4 |
| 20260905005724 | 30 | 173 | 4.8 | 6.4 | 0.00 | 0.00 | 0.00 | 61 | 1016.3 |
| 20260905004824 | 30 | 243 | 3.2 | 11.3 | 0.00 | 0.00 | 0.00 | 62 | 1016.5 |
| 20260905003924 | 30 | 101 | 3.2 | 6.4 | 0.00 | 0.00 | 0.00 | 60 | 1016.6 |
| 20260905003045 | 30 | 101 | 1.6 | 4.8 | 0.00 | 0.00 | 0.00 | 61 | 1016.7 |
| 20260905002124 | 30 | 159 | 4.8 | 6.4 | 0.00 | 0.00 | 0.00 | 61 | 1016.6 |
| 20260905001224 | 30 | 234 | 6.4 | 14.5 | 0.00 | 0.00 | 0.00 | 61 | 1017.1 |
| 20260905000325 | 30 | 225 | 4.8 | 14.5 | 0.00 | 0.00 | 0.00 | 60 | 1017.3 |
| 20260904235445 | 31 | 203 | 6.4 | 12.9 | 0.00 | 0.00 | 0.00 | 58 | 1016.9 |
| 20260904234525 | 31 | 161 | 8.0 | 17.7 | 0.00 | 0.00 | 0.00 | 57 | 1016.8 |
| 20260904233624 | 32 | 112 | 6.4 | 17.7 | 0.00 | 0.00 | 0.00 | 56 | 1016.3 |
| 20260904232724 | 32 | 72 | 3.2 | 11.3 | 0.00 | 0.00 | 0.00 | 54 | 1016.4 |
| 20260904231824 | 32 | 101 | 4.8 | 11.3 | 0.00 | 0.00 | 0.00 | 51 | 1016.8 |
| 20260904230924 | 32 | 226 | 1.6 | 8.0 | 0.00 | 0.00 | 0.00 | 52 | 1016.8 |
| 20260904230024 | 32 | 213 | 1.6 | 3.2 | 0.00 | 0.00 | 0.00 | 53 | 1016.6 |
| 20260904225124 | 32 | 223 | 6.4 | 8.0 | 0.00 | 0.00 | 0.00 | 53 | 1016.8 |
| 20260904224224 | 32 | 294 | 8.0 | 14.5 | 0.00 | 0.00 | 0.00 | 54 | 1016.6 |
| 20260904223324 | 32 | 245 | 6.4 | 17.7 | 0.00 | 0.00 | 0.00 | 53 | 1016.8 |
| 20260904222424 | 32 | 247 | 4.8 | 14.5 | 0.00 | 0.00 | 0.00 | 50 | 1016.4 |
| 20260904221524 | 32 | 337 | 4.8 | 11.3 | 0.00 | 0.00 | 0.00 | 53 | 1016.3 |
| 20260904220624 | 33 | 207 | 4.8 | 14.5 | 0.00 | 0.00 | 0.00 | 52 | 1017.2 |
| 20260904215724 | 34 | 285 | 3.2 | 9.7 | 0.00 | 0.00 | 0.00 | 46 | 1016.9 |
| 20260904214824 | 34 | 22 | 3.2 | 8.0 | 0.00 | 0.00 | 0.00 | 44 | 1016.6 |
| 20260904213924 | 33 | 2 | 3.2 | 8.0 | 0.00 | 0.00 | 0.00 | 45 | 1016.2 |
| 20260904213024 | 33 | 58 | 4.8 | 12.9 | 0.00 | 0.00 | 0.00 | 48 | 1016.2 |
| 20260904212145 | 33 | 67 | 1.6 | 12.9 | 0.00 | 0.00 | 0.00 | 50 | 1016.3 |
| 20260904211245 | 33 | 256 | 3.2 | 6.4 | 0.00 | 0.00 | 0.00 | 50 | 1016.9 |
| 20260904210323 | 33 | 235 | 4.8 | 9.7 | 0.00 | 0.00 | 0.00 | 50 | 1017.0 |
| 20260904205424 | 33 | 234 | 6.4 | 11.3 | 0.00 | 0.00 | 0.00 | 48 | 1016.9 |
| 20260904204523 | 34 | 246 | 4.8 | 14.5 | 0.00 | 0.00 | 0.00 | 45 | 1017.1 |
| 20260904203623 | 35 | 291 | 3.2 | 6.4 | 0.00 | 0.00 | 0.00 | 43 | 1016.8 |
| 20260904202723 | 35 | 305 | 3.2 | 12.9 | 0.00 | 0.00 | 0.00 | 43 | 1016.6 |
| 20260904201823 | 35 | 320 | 4.8 | 12.9 | 0.00 | 0.00 | 0.00 | 43 | 1016.4 |
| 20260904200923 | 35 | 332 | 6.4 | 9.7 | 0.00 | 0.00 | 0.00 | 43 | 1016.3 |
| 20260904200023 | 35 | 327 | 6.4 | 14.5 | 0.00 | 0.00 | 0.00 | 42 | 1016.2 |
| 20260904195123 | 35 | 350 | 6.4 | 12.9 | 0.00 | 0.00 | 0.00 | 42 | 1016.1 |
| 20260904194223 | 35 | 354 | 6.4 | 12.9 | 0.00 | 0.00 | 0.00 | 43 | 1016.0 |
| 20260904193323 | 35 | 333 | 8.0 | 17.7 | 0.00 | 0.00 | 0.00 | 43 | 1016.0 |
| 20260904192423 | 35 | 331 | 6.4 | 16.1 | 0.00 | 0.00 | 0.00 | 43 | 1015.9 |
| 20260904191544 | 35 | 321 | 8.0 | 17.7 | 0.00 | 0.00 | 0.00 | 45 | 1015.9 |
| 20260904190623 | 35 | 313 | 8.0 | 20.9 | 0.00 | 0.00 | 0.00 | 45 | 1015.8 |
| 20260904185723 | 35 | 309 | 8.0 | 17.7 | 0.00 | 0.00 | 0.00 | 45 | 1015.8 |
| 20260904184823 | 35 | 303 | 6.4 | 24.1 | 0.00 | 0.00 | 0.00 | 46 | 1015.8 |
| 20260904183923 | 35 | 289 | 6.4 | 17.7 | 0.00 | 0.00 | 0.00 | 47 | 1015.9 |
| 20260904183023 | 35 | 293 | 9.7 | 19.3 | 0.00 | 0.00 | 0.00 | 47 | 1016.0 |
| 20260904182123 | 35 | 270 | 9.7 | 29.0 | 0.00 | 0.00 | 0.00 | 47 | 1016.0 |
| 20260904181223 | 35 | 269 | 4.8 | 20.9 | 0.00 | 0.00 | 0.00 | 50 | 1016.0 |
| 20260904180323 | 34 | 236 | 4.8 | 9.7 | 0.00 | 0.00 | 0.00 | 59 | 1016.0 |
| 20260904175423 | 34 | 224 | 8.0 | 14.5 | 0.00 | 0.00 | 0.00 | 59 | 1016.0 |
| 20260904174524 | 35 | 222 | 9.7 | 17.7 | 0.00 | 0.00 | 0.00 | 58 | 1016.0 |
| 20260904173623 | 35 | 221 | 9.7 | 17.7 | 0.00 | 0.00 | 0.00 | 56 | 1015.9 |
| 20260904172723 | 35 | 213 | 9.7 | 20.9 | 0.00 | 0.00 | 0.00 | 53 | 1015.8 |
| 20260904171823 | 35 | 215 | 9.7 | 20.9 | 0.00 | 0.00 | 0.00 | 52 | 1015.8 |
| 20260904170923 | 36 | 221 | 8.0 | 16.1 | 0.00 | 0.00 | 0.00 | 53 | 1015.8 |
| 20260904170044 | 36 | 215 | 8.0 | 16.1 | 0.00 | 0.00 | 0.00 | 53 | 1015.8 |
| 20260904165123 | 37 | 210 | 8.0 | 16.1 | 0.00 | 0.00 | 0.00 | 52 | 1015.9 |
| 20260904164223 | 37 | 221 | 8.0 | 16.1 | 0.00 | 0.00 | 0.00 | 51 | 1015.9 |
| 20260904163323 | 37 | 216 | 6.4 | 14.5 | 0.00 | 0.00 | 0.00 | 50 | 1016.0 |
| 20260904162423 | 38 | 239 | 3.2 | 14.5 | 0.00 | 0.00 | 0.00 | 46 | 1015.8 |
| 20260904161523 | 40 | 262 | 3.2 | 9.7 | 0.00 | 0.00 | 0.00 | 41 | 1015.9 |
| 20260904160623 | 39 | 264 | 3.2 | 11.3 | 0.00 | 0.00 | 0.00 | 38 | 1016.0 |
| 20260904155744 | 38 | 276 | 4.8 | 12.9 | 0.00 | 0.00 | 0.00 | 39 | 1016.0 |
| 20260904154823 | 39 | 302 | 3.2 | 8.0 | 0.00 | 0.00 | 0.00 | 39 | 1016.2 |
| 20260904153944 | 38 | 310 | 3.2 | 11.3 | 0.00 | 0.00 | 0.00 | 39 | 1016.2 |
| 20260904153023 | 38 | 275 | 3.2 | 9.7 | 0.00 | 0.00 | 0.00 | 40 | 1016.3 |
| 20260904152122 | 38 | 307 | 4.8 | 9.7 | 0.00 | 0.00 | 0.00 | 40 | 1016.4 |
| 20260904151223 | 38 | 250 | 4.8 | 11.3 | 0.00 | 0.00 | 0.00 | 42 | 1016.6 |
| 20260904150323 | 38 | 272 | 3.2 | 11.3 | 0.00 | 0.00 | 0.00 | 42 | 1016.6 |
| 20260904145423 | 37 | 271 | 4.8 | 6.4 | 0.00 | 0.00 | 0.00 | 43 | 1016.6 |
| 20260904144544 | 37 | 288 | 1.6 | 11.3 | 0.00 | 0.00 | 0.00 | 44 | 1016.8 |
| 20260904143622 | 37 | 355 | 3.2 | 6.4 | 0.00 | 0.00 | 0.00 | 45 | 1016.9 |
| 20260904142722 | 37 | 265 | 3.2 | 9.7 | 0.00 | 0.00 | 0.00 | 44 | 1017.2 |
| 20260904141822 | 36 | 298 | 3.2 | 4.8 | 0.00 | 0.00 | 0.00 | 47 | 1017.4 |
| 20260904140922 | 36 | 287 | 3.2 | 11.3 | 0.00 | 0.00 | 0.00 | 49 | 1017.5 |
| 20260904140022 | 36 | 313 | 3.2 | 11.3 | 0.00 | 0.00 | 0.00 | 49 | 1017.7 |
| 20260904135122 | 35 | 246 | 3.2 | 8.0 | 0.00 | 0.00 | 0.00 | 51 | 1017.8 |
| 20260904134222 | 35 | 232 | 4.8 | 8.0 | 0.00 | 0.00 | 0.00 | 51 | 1018.0 |
| 20260904133322 | 34 | 244 | 4.8 | 11.3 | 0.00 | 0.00 | 0.00 | 52 | 1018.2 |
| 20260904132422 | 34 | 273 | 3.2 | 9.7 | 0.00 | 0.00 | 0.00 | 52 | 1018.1 |
| 20260904131522 | 33 | 79 | 3.2 | 8.0 | 0.00 | 0.00 | 0.00 | 53 | 1018.1 |
| 20260904130643 | 33 | 146 | 3.2 | 11.3 | 0.00 | 0.00 | 0.00 | 54 | 1018.2 |